Location: Innerarity Island Observatory
(30.3139°N, 87.4867°W)
Time: 08:39:56
(UTC-05:00)

Amateur Radio Satellites - All Passes

Search period start: 28 September 2016 08:09
Search period end: 29 September 2016 08:09
Location: Innerarity Island Observatory, 30.3139°N, 87.4867°W

Satellite Date Start Highest point End Downlink Frequencies (MHz)
Time Altitude Azimuth
CUBEBUG 2 28 Sep 08:10:57 08:12:07 11° 94° (E) 08:13:16 437.445
NOAA 15 28 Sep 08:13:39 08:17:05 18° 293° (WNW) 08:20:31 137.62
Cosmos 2499 28 Sep 08:14:59 08:21:25 36° 89° (E) 08:27:41 435.465 / 435.565
COMPASS 1 28 Sep 08:23:24 08:26:37 21° 96° (E) 08:29:48 437.405
UWE-3 28 Sep 08:28:12 08:29:37 11° 94° (E) 08:31:01 435.000/436.395/437.385
Cubesat XI-IV 28 Sep 08:31:17 08:34:17 15° 294° (WNW) 08:37:18 437.490
CUTE-I 28 Sep 08:31:23 08:34:20 15° 294° (WNW) 08:37:17 437.470
GONETS M04 28 Sep 08:38:29 08:47:13 70° 93° (E) 08:56:01
CINEMA 3 28 Sep 08:39:28 08:43:39 67° 284° (WNW) 08:47:56 145.822/145.860
CUTE 1.7 + AOD 2 28 Sep 08:50:50 08:55:07 70° 283° (WNW) 08:59:22 437.475
SEEDS 28 Sep 08:51:40 08:55:56 79° 100° (E) 09:00:10 437.485
CANX-2 28 Sep 08:52:12 08:56:25 56° 284° (WNW) 09:00:37 2200.000
Oscar 11 28 Sep 08:53:41 08:55:48 13° 94° (E) 08:57:55 145.826/435.025
ZACube-1 28 Sep 08:55:44 08:58:21 15° 95° (E) 09:00:59 437.345
PHONESAT 2.4 28 Sep 09:06:56 09:09:25 25° 144° (SE) 09:11:55 2401.200-2431.200
AAUSAT CUBESAT 2 28 Sep 09:13:18 09:17:30 73° 101° (E) 09:21:39 437.432
ANTELSAT 28 Sep 09:16:48 09:17:39 11° 68° (ENE) 09:18:31 437.575/2403.000
HO-68 28 Sep 09:29:49 09:36:35 48° 290° (WNW) 09:43:22 435.675
TIGRISAT 28 Sep 09:35:07 09:37:56 17° 70° (ENE) 09:40:45 435.000
PRISM 28 Sep 09:41:17 09:44:58 30° 262° (W) 09:48:39 437.425
CUBEBUG 2 28 Sep 09:44:42 09:48:50 46° 285° (WNW) 09:53:05 437.445
FUNcube-1 28 Sep 09:48:04 09:52:25 65° 101° (E) 09:56:50 145.935
COMPASS 1 28 Sep 09:58:44 10:02:01 22° 288° (WNW) 10:05:18 437.405
UWE-3 28 Sep 10:02:01 10:06:09 45° 285° (WNW) 10:10:25 435.000/436.395/437.385
BEESAT 3 28 Sep 10:03:21 10:07:06 39° 60° (ENE) 10:10:49 437.485
Cosmos 2499 28 Sep 10:08:18 10:14:24 29° 283° (WNW) 10:20:25 435.465 / 435.565
UNISAT 6 28 Sep 10:14:18 10:18:30 59° 76° (ENE) 10:22:42 437.425
Oscar 11 28 Sep 10:27:58 10:32:00 37° 286° (WNW) 10:36:01 145.826/435.025
DELFI C3 28 Sep 10:30:02 10:34:04 84° 101° (ESE) 10:38:02 145.870
ZACube-1 28 Sep 10:30:42 10:34:38 34° 286° (WNW) 10:38:38 437.345
GONETS M04 28 Sep 10:38:40 10:44:39 20° 289° (WNW) 10:50:41
QB50P2 28 Sep 10:42:40 10:44:50 14° 69° (ENE) 10:47:00 145.880/145.840
PHONESAT 2.4 28 Sep 10:42:46 10:45:27 33° 337° (NNW) 10:48:09 2401.200-2431.200
POLYITAN 1 28 Sep 10:44:54 10:47:03 14° 69° (ENE) 10:49:12 437.675
HUMSAT D 28 Sep 10:47:07 10:51:20 60° 100° (E) 10:55:34 437.325/437.525
ANTELSAT 28 Sep 10:49:47 10:53:55 47° 260° (W) 10:58:01 437.575/2403.000
BEESAT 2 28 Sep 10:59:32 11:03:34 89° 232° (SW) 11:07:33 435.950
TIGRISAT 28 Sep 11:10:43 11:14:23 28° 262° (W) 11:18:02 435.000
DUCHIFAT 1 28 Sep 11:20:25 11:24:09 32° 73° (ENE) 11:27:53 145.980
QB50P1 28 Sep 11:22:50 11:26:47 41° 74° (ENE) 11:30:44 145.935-145.965
BUGSAT 1 28 Sep 11:23:03 11:24:47 12° 69° (ENE) 11:26:31 437.445
VELOX 1 28 Sep 11:34:43 11:35:49 11° 94° (E) 11:36:54 145.980
ESTCUBE 1 28 Sep 11:34:59 11:38:52 27° 97° (E) 11:42:42 437.505/2401.250
POPSAT HIP 1 28 Sep 11:36:11 11:40:20 61° 76° (ENE) 11:44:29 437.405
CUBEBUG 1 28 Sep 11:36:12 11:38:53 16° 95° (E) 11:41:34 437.445
JAS-2 28 Sep 11:42:00 11:48:03 54° 72° (ENE) 11:54:55 435.910
BEESAT 3 28 Sep 11:43:03 11:44:19 11° 252° (WSW) 11:45:37 437.485
NANOSAT C BR1 28 Sep 11:52:06 11:56:18 86° 257° (WSW) 12:00:30 145.865
50 SAT 28 Sep 11:52:12 11:54:29 16° 96° (E) 11:56:45 437.505
SPROUT 28 Sep 12:14:25 12:17:20 18° 96° (E) 12:20:16 437.525
QB50P2 28 Sep 12:16:26 12:20:17 35° 261° (W) 12:24:09 145.880/145.840
POLYITAN 1 28 Sep 12:18:39 12:22:30 35° 261° (W) 12:26:21 437.675
PHONESAT 2.4 28 Sep 12:20:43 12:22:07 13° 353° (N) 12:23:30 2401.200-2431.200
AISAT 28 Sep 12:24:36 12:28:52 52° 100° (E) 12:33:07 437.250
UKube-1 28 Sep 12:29:11 12:32:38 23° 97° (E) 12:36:04 .
YUBILEINY 28 Sep 12:41:41 12:44:25 12° 67° (ENE) 12:47:08 435.215
Gurwin Techsat 1B 28 Sep 12:53:14 12:55:35 13° 65° (ENE) 12:57:57 435.225
BUGSAT 1 28 Sep 12:55:57 12:59:48 37° 261° (W) 13:03:35 437.445
DUCHIFAT 1 28 Sep 12:57:37 12:59:51 14° 265° (W) 13:02:06 145.980
AUBIESAT-1 28 Sep 12:57:40 13:00:53 49° 105° (ESE) 13:04:11 437.475
DX 1 28 Sep 12:58:07 13:02:27 76° 102° (ESE) 13:06:45 434.975-435.025
QB50P1 28 Sep 13:01:25 13:02:40 11° 266° (W) 13:03:55 145.935-145.965
VELOX 1 28 Sep 13:08:14 13:12:27 46° 286° (WNW) 13:16:37 145.980
CUBEBUG 1 28 Sep 13:11:22 13:15:09 30° 288° (WNW) 13:18:56 437.445
ESTCUBE 1 28 Sep 13:12:07 13:15:26 20° 290° (WNW) 13:18:45 437.505/2401.250
50 SAT 28 Sep 13:25:02 13:27:53 21° 288° (WNW) 13:30:41 437.505
AIST 2 28 Sep 13:26:22 13:30:33 69° 244° (WSW) 13:34:41 435.215
Oscar 19 28 Sep 13:27:06 13:32:16 70° 76° (ENE) 13:37:27 437.125/150
JAS-2 28 Sep 13:29:08 13:33:30 19° 269° (W) 13:38:14 435.910
TISAT 1 28 Sep 13:32:12 13:35:43 26° 98° (E) 13:39:15 437.305
PCSat 28 Sep 13:35:02 13:39:59 35° 60° (ENE) 13:44:54 145.827
M-CUBED/EXP-1 PRIME 28 Sep 13:35:55 13:38:46 28° 290° (WNW) 13:41:38 437.505
SPROUT 28 Sep 13:49:39 13:53:12 27° 288° (WNW) 13:56:46 437.525
PHONESAT 2.4 28 Sep 13:57:24 13:59:02 14° 10° (N) 14:00:38 2401.200-2431.200
AISAT 28 Sep 14:04:03 14:04:50 10° 293° (WNW) 14:05:36 437.250
AO-7 28 Sep 14:04:05 14:09:07 18° 58° (ENE) 14:14:08 29.400- 29.500
UKube-1 28 Sep 14:05:13 14:08:30 22° 290° (WNW) 14:11:46 .
ITUPSAT 1 28 Sep 14:09:12 14:10:53 12° 94° (E) 14:12:34 437.325
SWISSCUBE 28 Sep 14:20:22 14:23:47 19° 96° (E) 14:27:12 437.505
Cosmos 2491 28 Sep 14:22:13 14:30:22 45° 89° (E) 14:38:34 435.465 / 435.565
ITAMSAT 1 28 Sep 14:22:33 14:26:50 27° 70° (ENE) 14:31:08 435.822/435.867
Gurwin Techsat 1B 28 Sep 14:29:43 14:34:57 61° 259° (WSW) 14:40:12 435.225
BEESAT 28 Sep 14:32:55 14:36:45 24° 97° (E) 14:40:35 436.000
YUBILEINY 28 Sep 14:33:39 14:42:23 82° 84° (E) 14:51:05 435.215
SO-50 28 Sep 14:42:40 14:47:29 69° 115° (ESE) 14:52:17 436.795
Cosmos 2504 28 Sep 15:02:31 15:09:47 47° 81° (E) 15:17:30 435.465 / 435.565
TISAT 1 28 Sep 15:08:19 15:11:08 18° 290° (WNW) 15:13:55 437.305
PCSat 28 Sep 15:18:55 15:23:06 23° 254° (WSW) 15:27:16 145.827
PHONESAT 2.4 28 Sep 15:32:46 15:35:36 43° 25° (NNE) 15:38:27 2401.200-2431.200
ITUPSAT 1 28 Sep 15:44:15 15:48:54 52° 286° (WNW) 15:53:34 437.325
AO-7 28 Sep 15:52:31 16:00:52 83° 255° (WSW) 16:09:13 29.400- 29.500
MOZHAYETS 4 28 Sep 15:53:12 15:57:13 29° 97° (E) 16:01:13
SWISSCUBE 28 Sep 15:57:18 16:01:33 32° 288° (WNW) 16:05:48 437.505
ITAMSAT 1 28 Sep 16:01:50 16:06:09 27° 263° (W) 16:10:30 435.822/435.867
AIST 1 28 Sep 16:08:05 16:11:51 30° 80° (E) 16:15:35
BEESAT 28 Sep 16:10:26 16:14:25 26° 289° (WNW) 16:18:22 436.000
KKS-1 28 Sep 16:13:40 16:17:29 28° 98° (E) 16:21:18 437.445
Cosmos 2491 28 Sep 16:19:42 16:27:14 32° 284° (WNW) 16:34:51 435.465 / 435.565
SO-50 28 Sep 16:26:25 16:28:22 12° 310° (NW) 16:30:19 436.795
HORYU 2 28 Sep 16:26:57 16:30:04 19° 70° (ENE) 16:33:13 437.375
O/OREOS (USA 219) 28 Sep 16:29:35 16:32:19 15° 62° (ENE) 16:35:02 437.305
YUBILEINY 28 Sep 16:33:45 16:38:00 15° 279° (W) 16:42:15 435.215
STARS 28 Sep 16:45:20 16:49:10 30° 98° (E) 16:52:59 437.465
BRITE-PL 28 Sep 16:48:11 16:52:37 24° 70° (ENE) 16:57:00 437.365/2234.400
Cosmos 2504 28 Sep 16:56:46 17:02:44 26° 273° (W) 17:09:01 435.465 / 435.565
PHONESAT 2.4 28 Sep 17:09:22 17:11:32 19° 218° (SW) 17:13:43 2401.200-2431.200
CUBESAT XI-V 28 Sep 17:14:56 17:18:55 27° 97° (E) 17:22:51 437.345
NOAA 18 28 Sep 17:16:32 17:18:40 12° 64° (ENE) 17:20:48 137.9125
MOZHAYETS 4 28 Sep 17:30:43 17:34:09 21° 290° (WNW) 17:37:34
AIST 1 28 Sep 17:46:46 17:49:06 14° 272° (W) 17:51:25
NOAA 15 28 Sep 17:47:03 17:51:58 40° 72° (ENE) 17:56:54 137.62
KKS-1 28 Sep 17:50:43 17:53:48 19° 290° (WNW) 17:56:54 437.445
AO-7 28 Sep 17:52:02 17:54:25 11° 267° (W) 17:56:47 29.400- 29.500
HORYU 2 28 Sep 18:02:38 18:06:23 27° 262° (W) 18:10:10 437.375
CUTE-I 28 Sep 18:05:44 18:10:49 50° 73° (ENE) 18:15:55 437.470
Cubesat XI-IV 28 Sep 18:05:50 18:10:55 49° 73° (ENE) 18:16:02 437.490
O/OREOS (USA 219) 28 Sep 18:07:35 18:11:50 38° 256° (WSW) 18:16:02 437.305
GOMX 1 28 Sep 18:10:44 18:16:08 68° 76° (ENE) 18:21:21 467.674
STARS 28 Sep 18:22:21 18:25:14 18° 291° (WNW) 18:28:08 437.465
BRITE-PL 28 Sep 18:25:31 18:30:45 38° 262° (W) 18:35:59 437.365/2234.400
LilacSat-2 28 Sep 18:27:25 18:31:11 88° 267° (W) 18:34:57 437.200
DOVE 4 28 Sep 18:28:52 18:33:39 42° 75° (ENE) 18:38:12 437.250
RS-15 28 Sep 18:30:53 18:40:36 34° 104° (ESE) 18:50:41 29.354- 29.394
JUGNU 28 Sep 18:35:44 18:39:14 16° 164° (SSE) 18:42:43 437.505
CUBESAT XI-V 28 Sep 18:52:31 18:56:05 22° 290° (WNW) 18:59:36 437.345
NOAA 18 28 Sep 18:53:15 18:58:41 68° 258° (WSW) 19:04:07 137.9125
GONETS M04 28 Sep 18:57:13 19:04:11 26° 74° (ENE) 19:11:04
DANDE 28 Sep 19:07:21 19:11:07 23° 84° (E) 19:15:43 436.750
CUSAT 1 28 Sep 19:08:25 19:14:11 81° 96° (E) 19:21:32 437.405
NOAA 15 28 Sep 19:28:09 19:31:48 19° 265° (W) 19:35:28 137.62
CINEMA 3 28 Sep 19:35:09 19:39:35 53° 76° (ENE) 19:43:50 145.822/145.860
CUTE 1.7 + AOD 2 28 Sep 19:37:43 19:41:36 37° 74° (ENE) 19:45:31 437.475
SEEDS 28 Sep 19:38:06 19:41:31 25° 72° (ENE) 19:44:57 437.485
ISS 28 Sep 19:38:12 19:41:23 57° 316° (NW) 19:44:36 145.825
CANX-2 28 Sep 19:38:59 19:43:00 46° 75° (ENE) 19:47:04 2200.000
CUTE-I 28 Sep 19:48:07 19:51:02 15° 266° (W) 19:53:58 437.470
Cubesat XI-IV 28 Sep 19:48:11 19:51:10 15° 266° (W) 19:54:08 437.490
HO-68 28 Sep 19:51:11 19:58:19 73° 73° (ENE) 20:05:27 435.675
GOMX 1 28 Sep 19:52:56 19:54:24 11° 267° (W) 19:55:53 467.674
AAUSAT CUBESAT 2 28 Sep 19:58:24 20:01:36 22° 72° (ENE) 20:04:49 437.432
Cosmos 2499 28 Sep 20:03:08 20:10:48 63° 83° (E) 20:19:03 435.465 / 435.565
DOVE 4 28 Sep 20:08:16 20:11:21 16° 265° (W) 20:14:21 437.250
STRAND 1 28 Sep 20:14:21 20:19:31 82° 285° (WNW) 20:24:40 437.568
JUGNU 28 Sep 20:22:49 20:27:43 27° 172° (S) 20:32:35 437.505
AO-85 28 Sep 20:23:04 20:28:20 63° 115° (ESE) 20:33:20 145.980
CUBEBUG 2 28 Sep 20:36:53 20:41:06 69° 76° (ENE) 20:45:14 437.445
FUNcube-1 28 Sep 20:38:46 20:42:01 23° 72° (ENE) 20:45:15 145.935
RS-15 28 Sep 20:41:02 20:52:17 58° 302° (WNW) 21:04:12 29.354- 29.394
COMPASS 1 28 Sep 20:42:30 20:46:39 73° 259° (W) 20:50:50 437.405
DANDE 28 Sep 20:49:08 20:53:28 31° 288° (WNW) 20:59:00 436.750
GONETS M04 28 Sep 20:52:49 21:01:17 55° 270° (W) 21:09:41
UWE-3 28 Sep 20:53:06 20:57:14 68° 77° (ENE) 21:01:22 435.000/436.395/437.385
CUSAT 1 28 Sep 20:54:19 20:57:20 13° 296° (WNW) 21:00:36 437.405
DELFI C3 28 Sep 21:10:47 21:13:47 21° 72° (ENE) 21:16:49 145.870
SEEDS 28 Sep 21:14:07 21:17:07 19° 265° (W) 21:20:08 437.485
CUTE 1.7 + AOD 2 28 Sep 21:15:40 21:17:31 13° 266° (W) 21:19:23 437.475
Oscar 11 28 Sep 21:16:20 21:20:37 77° 77° (ENE) 21:24:55 145.826/435.025
CANX-2 28 Sep 21:18:54 21:19:01 10° 267° (W) 21:19:08 2200.000
ZACube-1 28 Sep 21:20:20 21:24:28 89° 82° (E) 21:28:37 437.345
SRMSAT 28 Sep 21:21:48 21:25:44 18° 165° (SSE) 21:29:39 437.500
PRISM 28 Sep 21:27:55 21:31:57 54° 100° (E) 21:35:56 437.425
HUMSAT D 28 Sep 21:33:43 21:36:35 19° 71° (ENE) 21:39:27 437.325/437.525
AAUSAT CUBESAT 2 28 Sep 21:33:46 21:36:55 21° 264° (W) 21:40:07 437.432
HO-68 28 Sep 21:42:30 21:46:27 15° 266° (W) 21:50:25 435.675
Cosmos 2499 28 Sep 21:58:05 22:03:18 20° 275° (W) 22:08:43 435.465 / 435.565
AO-85 28 Sep 22:06:16 22:09:05 15° 308° (NW) 22:11:50 145.980
JUGNU 28 Sep 22:11:11 22:16:15 29° 183° (S) 22:21:18 437.505
UNISAT 6 28 Sep 22:12:07 22:15:24 20° 96° (E) 22:18:44 437.425
FUNcube-1 28 Sep 22:15:09 22:18:09 19° 264° (W) 22:21:10 145.935
ESTCUBE 1 28 Sep 22:30:27 22:32:39 13° 68° (ENE) 22:34:50 437.505/2401.250
DELFI C3 28 Sep 22:45:29 22:48:28 20° 264° (W) 22:51:28 145.870
ANTELSAT 28 Sep 22:46:32 22:50:54 52° 100° (E) 22:55:20 437.575/2403.000
RS-15 28 Sep 23:01:49 23:08:10 15° 329° (NNW) 23:14:41 29.354- 29.394
JAS-2 28 Sep 23:02:12 23:04:05 11° 88° (E) 23:05:57 435.910
TIGRISAT 28 Sep 23:06:41 23:11:08 88° 97° (E) 23:15:41 435.000
HUMSAT D 28 Sep 23:08:44 23:12:00 23° 263° (W) 23:15:18 437.325/437.525
SRMSAT 28 Sep 23:09:24 23:14:22 28° 175° (S) 23:19:20 437.500
QB50P1 28 Sep 23:15:56 23:16:41 10° 94° (E) 23:17:26 145.935-145.965
AISAT 28 Sep 23:16:47 23:20:17 23° 71° (ENE) 23:23:47 437.250
SO-50 28 Sep 23:21:30 23:23:45 13° 51° (NE) 23:25:58 436.795
POPSAT HIP 1 28 Sep 23:27:53 23:30:25 15° 95° (E) 23:32:56 437.405
AUBIESAT-1 28 Sep 23:38:18 23:41:44 26° 70° (ENE) 23:45:00 437.475
NANOSAT C BR1 28 Sep 23:42:43 23:46:05 23° 97° (E) 23:49:25 145.865
DX 1 28 Sep 23:48:07 23:51:57 30° 72° (ENE) 23:55:48 434.975-435.025
UNISAT 6 28 Sep 23:48:16 23:52:01 27° 288° (WNW) 23:55:50 437.425
BEESAT 3 28 Sep 23:48:37 23:51:53 26° 111° (ESE) 23:55:10 437.485
50 SAT 28 Sep 23:55:01 23:58:35 60° 76° (ENE) 00:02:10 437.505
VELOX 1 28 Sep 23:59:13 00:03:38 73° 77° (ENE) 00:08:05 145.980
JUGNU 29 Sep 00:00:23 00:04:46 22° 192° (SSW) 00:09:07 437.505
CUBEBUG 1 29 Sep 00:00:38 00:05:03 80° 257° (WSW) 00:09:29 437.445
ESTCUBE 1 29 Sep 00:04:44 00:09:01 43° 261° (W) 00:13:20 437.505/2401.250
QB50P2 29 Sep 00:06:31 00:10:40 55° 100° (E) 00:14:49 145.880/145.840
POLYITAN 1 29 Sep 00:08:43 00:12:51 55° 100° (E) 00:17:00 437.675
M-CUBED/EXP-1 PRIME 29 Sep 00:15:45 00:20:02 75° 254° (WSW) 00:23:59 437.505
ANTELSAT 29 Sep 00:25:58 00:27:08 11° 292° (WNW) 00:28:17 437.575/2403.000
SPROUT 29 Sep 00:36:27 00:40:42 76° 258° (WSW) 00:44:58 437.525
Cosmos 2491 29 Sep 00:41:56 00:46:46 16° 69° (ENE) 00:51:33 435.465 / 435.565
JAS-2 29 Sep 00:42:08 00:50:00 83° 102° (ESE) 00:57:16 435.910
BUGSAT 1 29 Sep 00:43:03 00:46:54 43° 100° (E) 00:50:45 437.445
DUCHIFAT 1 29 Sep 00:45:07 00:49:13 57° 284° (WNW) 00:53:20 145.980
BEESAT 2 29 Sep 00:45:41 00:49:33 65° 115° (ESE) 00:53:29 435.950
QB50P1 29 Sep 00:48:35 00:52:35 44° 285° (WNW) 00:56:36 145.935-145.965
UKube-1 29 Sep 00:52:52 00:57:05 53° 259° (W) 01:01:20 .
AISAT 29 Sep 00:53:01 00:56:35 23° 263° (W) 01:00:10 437.250
SRMSAT 29 Sep 00:58:04 01:03:03 28° 185° (S) 01:08:03 437.500
SO-50 29 Sep 01:00:08 01:04:30 51° 246° (WSW) 01:08:46 436.795
POPSAT HIP 1 29 Sep 01:02:29 01:06:11 30° 287° (WNW) 01:09:53 437.405
AUBIESAT-1 29 Sep 01:13:17 01:16:05 17° 258° (WSW) 01:18:46 437.475
NANOSAT C BR1 29 Sep 01:18:29 01:21:38 21° 289° (WNW) 01:24:46 145.865
SWISSCUBE 29 Sep 01:23:02 01:24:49 12° 66° (ENE) 01:26:35 437.505
DX 1 29 Sep 01:25:17 01:28:07 17° 264° (W) 01:30:57 434.975-435.025
BEESAT 3 29 Sep 01:26:49 01:29:29 18° 305° (NW) 01:32:11 437.485
YUBILEINY 29 Sep 01:34:35 01:39:51 18° 82° (E) 01:45:05 435.215
BEESAT 29 Sep 01:34:58 01:37:35 15° 67° (ENE) 01:40:13 436.000
Oscar 19 29 Sep 01:44:47 01:49:35 39° 99° (E) 01:54:20 437.125/150
TISAT 1 29 Sep 01:52:49 01:56:53 50° 260° (W) 02:00:57 437.305
ISS 29 Sep 02:12:12 02:13:13 11° 33° (NNE) 02:14:15 145.825
BUGSAT 1 29 Sep 02:21:27 02:21:50 10° 292° (WNW) 02:22:13 437.445
JAS-2 29 Sep 02:29:22 02:33:55 17° 299° (WNW) 02:38:20 435.910
Cosmos 2491 29 Sep 02:35:38 02:44:30 84° 265° (W) 02:53:17 435.465 / 435.565
ITAMSAT 1 29 Sep 02:42:01 02:45:01 15° 95° (E) 02:48:00 435.822/435.867
ITUPSAT 1 29 Sep 02:44:52 02:49:38 88° 262° (W) 02:54:25 437.325
SRMSAT 29 Sep 02:47:38 02:51:42 19° 194° (SSW) 02:55:46 437.500
MOZHAYETS 4 29 Sep 02:50:52 02:53:19 14° 68° (ENE) 02:55:47
Gurwin Techsat 1B 29 Sep 02:51:40 02:57:01 87° 101° (E) 03:02:19 435.225
SWISSCUBE 29 Sep 02:57:26 03:02:04 54° 259° (W) 03:06:44 437.505
KKS-1 29 Sep 03:07:39 03:09:52 14° 68° (ENE) 03:12:06 437.445
BEESAT 29 Sep 03:10:27 03:14:56 43° 260° (W) 03:19:28 436.000
AIST 2 29 Sep 03:18:09 03:22:13 80° 296° (WNW) 03:26:20 435.215
Oscar 19 29 Sep 03:25:02 03:28:33 19° 292° (WNW) 03:32:03 437.125/150
YUBILEINY 29 Sep 03:26:51 03:35:37 74° 276° (W) 03:44:24 435.215
Cosmos 2504 29 Sep 03:34:34 03:41:38 45° 90° (E) 03:48:23 435.465 / 435.565
STARS 29 Sep 03:37:55 03:40:07 14° 68° (ENE) 03:42:18 437.465
RS-15 29 Sep 03:38:40 03:48:34 27° 44° (NE) 03:58:14 29.354- 29.394
ISS 29 Sep 03:46:44 03:50:00 65° 228° (SW) 03:53:15 145.825
AO-7 29 Sep 04:00:51 04:08:49 49° 102° (ESE) 04:16:44 29.400- 29.500
PCSat 29 Sep 04:10:17 04:15:41 79° 294° (WNW) 04:21:08 145.827
CUBESAT XI-V 29 Sep 04:13:50 04:16:24 15° 68° (ENE) 04:18:59 437.345
ITAMSAT 1 29 Sep 04:19:37 04:24:37 47° 287° (WNW) 04:29:37 435.822/435.867
MOZHAYETS 4 29 Sep 04:25:48 04:30:05 40° 261° (W) 04:34:24
AIST 1 29 Sep 04:31:28 04:35:00 24° 90° (E) 04:38:31
Cosmos 2491 29 Sep 04:37:33 04:39:54 11° 281° (WNW) 04:42:15 435.465 / 435.565
KKS-1 29 Sep 04:41:51 04:46:02 40° 261° (W) 04:50:14 437.445
STARS 29 Sep 05:11:58 05:16:04 39° 261° (W) 05:20:11 437.465
Cosmos 2504 29 Sep 05:29:15 05:35:03 24° 284° (WNW) 05:40:43 435.465 / 435.565
CUBESAT XI-V 29 Sep 05:48:56 05:53:22 42° 261° (W) 05:57:50 437.345
CUSAT 1 29 Sep 05:50:04 05:57:03 44° 76° (ENE) 06:02:42 437.405
RS-15 29 Sep 05:50:09 06:02:33 85° 246° (WSW) 06:14:30 29.354- 29.394
DANDE 29 Sep 05:51:14 05:57:20 22° 69° (ENE) 06:02:58 436.750
AO-7 29 Sep 05:54:14 06:01:10 31° 297° (WNW) 06:08:07 29.400- 29.500
HORYU 2 29 Sep 05:58:17 06:02:46 86° 108° (ESE) 06:07:14 437.375
LilacSat-2 29 Sep 06:07:33 06:09:50 15° 95° (E) 06:12:07 437.200
NOAA 15 29 Sep 06:08:29 06:12:45 24° 97° (E) 06:16:57 137.62
AIST 1 29 Sep 06:09:17 06:12:29 20° 283° (WNW) 06:15:41
GOMX 1 29 Sep 06:19:40 06:23:15 26° 96° (E) 06:26:45 467.674
CUTE-I 29 Sep 06:28:48 06:33:34 32° 98° (E) 06:38:19 437.470
Cubesat XI-IV 29 Sep 06:29:05 06:33:51 32° 98° (E) 06:38:36 437.490
O/OREOS (USA 219) 29 Sep 06:34:32 06:38:53 48° 105° (ESE) 06:43:17 437.305
DOVE 4 29 Sep 06:35:07 06:37:22 14° 95° (E) 06:39:36 437.250
BRITE-PL 29 Sep 06:36:52 06:41:27 62° 284° (WNW) 06:45:42 437.365/2234.400
AO-85 29 Sep 06:41:14 06:45:09 56° 246° (WSW) 06:48:54 145.980
NOAA 18 29 Sep 07:21:03 07:26:32 85° 102° (ESE) 07:32:02 137.9125
STRAND 1 29 Sep 07:24:21 07:29:26 79° 76° (ENE) 07:34:33 437.568
HO-68 29 Sep 07:27:08 07:31:44 18° 95° (E) 07:36:18 435.675
CANX-2 29 Sep 07:31:26 07:33:22 13° 94° (E) 07:35:18 2200.000
CUTE 1.7 + AOD 2 29 Sep 07:31:26 07:31:46 10° 93° (E) 07:32:04 437.475
DANDE 29 Sep 07:32:28 07:40:45 67° 267° (W) 07:47:57 436.750
CUSAT 1 29 Sep 07:32:57 07:38:26 24° 276° (W) 07:43:09 437.405
CINEMA 3 29 Sep 07:36:08 07:39:06 18° 96° (E) 07:42:07 145.822/145.860
LilacSat-2 29 Sep 07:40:53 07:44:04 25° 287° (WNW) 07:47:16 437.200
NOAA 15 29 Sep 07:47:49 07:52:26 31° 290° (WNW) 07:57:00 137.62
GONETS M04 29 Sep 07:50:29 07:58:14 36° 87° (E) 08:06:01
GOMX 1 29 Sep 07:58:18 08:01:07 17° 290° (WNW) 08:03:53 467.674
